York, PA

8:32 AM EST on December 09, 2019 (GMT -0500)
York

Weather History for KTHV - October, 2019

Change the Weather History Date:

Thursday, October 10, 2019

  Actual Average Record
Temperature  
Mean Temperature 58 °F -  
Max Temperature 73 °F 0 °F 82 °F (1997)
Min Temperature 44 °F - 30 °F (2001)
Degree Days  
Heating Degree Days 6    
Growing Degree Days 8 (Base 50)    
Moisture  
Dew Point 46 °F    
Average Humidity 69    
Maximum Humidity 89    
Minimum Humidity 46    
Precipitation  
Precipitation 0.00 in - - ()
Sea Level Pressure  
Sea Level Pressure 30.24 in    
Wind  
Wind Speed 3 mph ()    
Max Wind Speed 9 mph    
Max Gust Speed -    
Visibility 10.0 miles    
Events      
Averages and records for this station are not official NWS values.
T = Trace of Precipitation, MM = Missing Value Source: Averaged Metar Reports

Daily Weather History Graph

Daily Weather History Graph

Search for Another Location

Airport or City:

Astronomy

Oct. 10, 2019 Rise Set
Actual Time 7:12 AM EDT 6:35 PM EDT
Civil Twilight 6:45 AM EDT 7:02 PM EDT
Nautical Twilight 6:14 AM EDT 7:34 PM EDT
Astronomical Twilight 5:42 AM EDT 8:05 PM EDT
Moon 5:36 PM EDT (10/10) 3:54 AM EDT (10/10)
Length of Visible Light 12h 17m
Length of Day
11h 23m
Waxing Gibbous, 91% of the Moon is Illuminated
Oct 10
Waxing Gibbous
Oct 13
Full
Oct 21
Last Quarter
Oct 27
New
Nov 4
First Quarter

Hourly Weather History & Observations

Time (EDT) Temp. Windchill Dew Point Humidity Pressure Visibility Wind Dir Wind Speed Gust Speed Precip Events Conditions
12:53 AM 54.0 °F - 43.0 °F 66% 30.28 in 10.0 mi North 4.6 mph - N/A   Unknown
1:53 AM 52.0 °F - 41.0 °F 66% 30.27 in 10.0 mi North 3.5 mph - N/A   Mostly Cloudy
2:53 AM 48.9 °F - 41.0 °F 74% 30.27 in 10.0 mi Calm Calm - N/A   Clear
3:53 AM 45.0 °F - 41.0 °F 86% 30.27 in 10.0 mi Calm Calm - N/A   Clear
4:53 AM 44.1 °F - 41.0 °F 89% 30.27 in 10.0 mi Calm Calm - N/A   Clear
5:53 AM 44.1 °F 42.5 °F 41.0 °F 89% 30.27 in 10.0 mi West 3.5 mph - N/A   Clear
6:53 AM 46.0 °F 44.8 °F 42.1 °F 86% 30.28 in 10.0 mi West 3.5 mph - N/A   Overcast
7:53 AM 48.0 °F - 43.0 °F 83% 30.30 in 10.0 mi West 3.5 mph - N/A   Overcast
8:53 AM 52.0 °F - 44.1 °F 74% 30.30 in 10.0 mi NNW 4.6 mph - N/A   Overcast
9:53 AM 57.0 °F - 44.1 °F 62% 30.30 in 10.0 mi NNE 6.9 mph - N/A   Mostly Cloudy
10:53 AM 62.1 °F - 45.0 °F 53% 30.28 in 10.0 mi NNE 6.9 mph - N/A   Partly Cloudy
11:53 AM 64.9 °F - 46.9 °F 52% 30.26 in 10.0 mi NE 6.9 mph - N/A   Clear
12:53 PM 68.0 °F - 48.9 °F 50% 30.24 in 10.0 mi Variable 5.8 mph - N/A   Clear
1:53 PM 70.0 °F - 50.0 °F 49% 30.22 in 10.0 mi Variable 5.8 mph - N/A   Clear
2:53 PM 71.1 °F - 51.1 °F 49% 30.20 in 10.0 mi NNW 8.1 mph - N/A   Scattered Clouds
3:53 PM 73.0 °F - 51.1 °F 46% 30.19 in 10.0 mi NNW 9.2 mph - N/A   Clear
4:53 PM 72.0 °F - 51.1 °F 48% 30.18 in 10.0 mi NNE 6.9 mph - N/A   Clear
5:53 PM 70.0 °F - 51.1 °F 51% 30.19 in 10.0 mi NNW 5.8 mph - N/A   Clear
6:53 PM 64.9 °F - 51.1 °F 61% 30.19 in 10.0 mi NW 4.6 mph - N/A   Clear
7:53 PM 57.9 °F - 50.0 °F 75% 30.18 in 10.0 mi WNW 4.6 mph - N/A   Clear
8:53 PM 55.9 °F - 50.0 °F 80% 30.18 in 10.0 mi Calm Calm - N/A   Partly Cloudy
9:53 PM 52.0 °F - 48.9 °F 89% 30.19 in 10.0 mi Calm Calm - N/A   Clear
10:53 PM 48.0 °F - 45.0 °F 89% 30.20 in 10.0 mi Calm Calm - N/A   Clear
11:53 PM 46.0 °F 44.8 °F 43.0 °F 89% 30.20 in 10.0 mi West 3.5 mph - N/A   Clear